Location: Kailua
(21.4020°N, 157.7390°W)
Time: 01:59:30
(UTC-10:00)

Cosmos 2221 Rocket - Visible Passes

Search period start: 25 July 2016 00:00
Search period end: 04 August 2016 00:00
Orbit: 621 x 648 km, 82.5° (Epoch: 25 July)

Date Brightness Start Highest point End Pass type
(mag) Time Alt. Az. Time Alt. Az. Time Alt. Az.
25 Jul 3.5 19:51:25 10° N 19:55:49 66° E 20:00:10 10° SSE visible
26 Jul 4.6 20:13:46 10° NNW 20:18:00 46° W 20:22:12 10° SSW visible
27 Jul 6.3 20:37:01 10° NW 20:40:06 19° W 20:43:10 10° SW visible
29 Jul 4.2 19:42:20 10° NNW 19:46:41 61° W 19:51:01 10° S visible
30 Jul 6.0 20:05:16 10° NW 20:08:48 24° W 20:12:21 10° SW visible
02 Aug 5.7 19:33:38 10° NNW 19:37:30 31° W 19:41:22 10° SSW visible
03 Aug 6.8 19:57:40 10° WNW 19:59:34 13° W 20:01:28 10° WSW visible
